Grove, OK

12:02 AM CST on February 21, 2017 (GMT -0600)
Grove Municipal

Weather History for KGMJ - January, 2013

Change the Weather History Date:

Tuesday, January 29, 2013

  Actual Average (KSLG) Record (KSLG)
Temperature  
Mean Temperature 58 °F -  
Max Temperature 73 °F 45 °F 73 °F (2011)
Min Temperature 44 °F 27 °F 8 °F (2014)
Degree Days  
Heating Degree Days 6    
Growing Degree Days 8 (Base 50)    
Moisture  
Dew Point 56 °F    
Average Humidity 88    
Maximum Humidity 100    
Minimum Humidity 69    
Precipitation  
Precipitation 0.00 in - - ()
Sea Level Pressure  
Sea Level Pressure 29.61 in    
Wind  
Wind Speed 15 mph (South)    
Max Wind Speed 25 mph    
Max Gust Speed 37 mph    
Visibility 8 miles    
Events Rain , Thunderstorm    
Averages and records for this station are not official NWS values.
T = Trace of Precipitation, MM = Missing Value Source: NWS Daily Summary

Daily Weather History Graph

Daily Weather History Graph

Search for Another Location

Airport or City:

Trip Planner

Search our weather history database for the weather conditions in past years. The results will help you decide how hot, cold, wet, or windy it might be!

Date:

Astronomy

Jan. 29, 2013 Rise Set
Actual Time 7:22 AM CST 5:41 PM CST
Civil Twilight 6:55 AM CST 6:09 PM CST
Nautical Twilight 6:24 AM CST 6:40 PM CST
Astronomical Twilight 5:53 AM CST 7:10 PM CST
Moon 8:32 PM CST (1/29) 8:25 AM CST (1/29)
Length of Visible Light 11h 13m
Length of Day
10h 19m
Waning Gibbous, 93% of the Moon is Illuminated
Jan 29
Waning Gibbous
Feb 3
Last Quarter
Feb 10
New
Feb 17
First Quarter
Feb 25
Full

Hourly Weather History & Observations

Time (CST) Temp. Windchill Dew Point Humidity Pressure Visibility Wind Dir Wind Speed Gust Speed Precip Events Conditions
12:15 AM 69.8 °F - 60.8 °F 73% 29.79 in 10.0 mi South 19.6 mph 36.8 mph N/A   Mostly Cloudy
12:35 AM 69.8 °F - 60.8 °F 73% 29.78 in 10.0 mi South 18.4 mph 24.2 mph N/A   Scattered Clouds
12:55 AM 69.8 °F - 60.8 °F 73% 29.78 in 10.0 mi South 18.4 mph 25.3 mph N/A   Scattered Clouds
1:15 AM 68.0 °F - 60.8 °F 78% 29.78 in 10.0 mi South 15.0 mph 20.7 mph N/A   Clear
1:35 AM 68.0 °F - 60.8 °F 78% 29.78 in 10.0 mi South 18.4 mph 25.3 mph N/A   Clear
1:55 AM 69.8 °F - 60.8 °F 73% 29.77 in 10.0 mi South 20.7 mph 31.1 mph N/A   Scattered Clouds
2:15 AM 68.0 °F - 60.8 °F 78% 29.77 in 10.0 mi South 16.1 mph - N/A   Clear
2:35 AM 69.8 °F - 60.8 °F 73% 29.76 in 10.0 mi South 18.4 mph 25.3 mph N/A   Clear
2:55 AM 69.8 °F - 60.8 °F 73% 29.76 in 10.0 mi South 19.6 mph 26.5 mph N/A   Scattered Clouds
3:15 AM 69.8 °F - 60.8 °F 73% 29.76 in 10.0 mi South 18.4 mph 27.6 mph N/A   Mostly Cloudy
3:35 AM 68.0 °F - 60.8 °F 78% 29.76 in 10.0 mi South 17.3 mph 24.2 mph N/A   Overcast
3:55 AM 69.8 °F - 60.8 °F 73% 29.75 in 10.0 mi South 16.1 mph 32.2 mph N/A   Overcast
4:15 AM 69.8 °F - 60.8 °F 73% 29.74 in 10.0 mi South 15.0 mph 26.5 mph N/A   Overcast
4:35 AM 69.8 °F - 60.8 °F 73% 29.74 in 10.0 mi South 17.3 mph 29.9 mph N/A   Mostly Cloudy
4:55 AM 69.8 °F - 60.8 °F 73% 29.73 in 10.0 mi South 19.6 mph 27.6 mph N/A   Overcast
5:15 AM 69.8 °F - 60.8 °F 73% 29.72 in 10.0 mi South 19.6 mph 27.6 mph N/A   Overcast
5:35 AM 69.8 °F - 60.8 °F 73% 29.71 in 10.0 mi South 19.6 mph 24.2 mph N/A   Mostly Cloudy
5:55 AM 68.0 °F - 60.8 °F 78% 29.71 in 10.0 mi South 20.7 mph 25.3 mph N/A   Mostly Cloudy
6:15 AM 68.0 °F - 60.8 °F 78% 29.69 in 10.0 mi South 19.6 mph 25.3 mph N/A   Scattered Clouds
6:35 AM 68.0 °F - 60.8 °F 78% 29.68 in 10.0 mi South 21.9 mph 27.6 mph N/A   Scattered Clouds
6:55 AM 68.0 °F - 60.8 °F 78% 29.67 in 10.0 mi South 20.7 mph 26.5 mph N/A   Scattered Clouds
7:15 AM 68.0 °F - 60.8 °F 78% 29.67 in 10.0 mi South 19.6 mph 24.2 mph N/A   Clear
7:35 AM 68.0 °F - 60.8 °F 78% 29.66 in 10.0 mi South 16.1 mph 25.3 mph N/A   Clear
7:55 AM 68.0 °F - 60.8 °F 78% 29.67 in 10.0 mi South 16.1 mph 23.0 mph N/A   Clear
8:15 AM 68.0 °F - 60.8 °F 78% 29.67 in 10.0 mi South 15.0 mph 25.3 mph N/A   Scattered Clouds
8:35 AM 68.0 °F - 60.8 °F 78% 29.65 in 10.0 mi South 13.8 mph 19.6 mph N/A   Scattered Clouds
8:55 AM 68.0 °F - 62.6 °F 83% 29.66 in 10.0 mi South 17.3 mph 24.2 mph N/A   Scattered Clouds
9:15 AM 69.8 °F - 62.6 °F 78% 29.65 in 10.0 mi South 17.3 mph 26.5 mph N/A Thunderstorm Mostly Cloudy
9:35 AM 69.8 °F - 62.6 °F 78% 29.63 in 10.0 mi South 17.3 mph 29.9 mph N/A   Overcast
9:55 AM 69.8 °F - 62.6 °F 78% 29.62 in 10.0 mi South 20.7 mph 28.8 mph N/A   Overcast
10:15 AM 69.8 °F - 62.6 °F 78% 29.61 in 10.0 mi South 19.6 mph 26.5 mph N/A   Overcast
10:35 AM 71.6 °F - 62.6 °F 73% 29.59 in 10.0 mi South 18.4 mph 29.9 mph N/A Thunderstorm Overcast
10:55 AM 69.8 °F - 62.6 °F 78% 29.58 in 10.0 mi South 20.7 mph 28.8 mph N/A   Overcast
11:15 AM 73.4 °F - 62.6 °F 69% 29.56 in 10.0 mi South 21.9 mph 33.4 mph N/A Thunderstorm Overcast
11:35 AM 73.4 °F - 62.6 °F 69% 29.55 in 10.0 mi South 25.3 mph 36.8 mph N/A   Mostly Cloudy
11:55 AM 73.4 °F - 62.6 °F 69% 29.54 in 10.0 mi SSW 24.2 mph 35.7 mph N/A Thunderstorm Overcast
12:15 PM 55.4 °F - 55.4 °F 100% 29.59 in 1.8 mi WNW 12.7 mph 33.4 mph N/A Rain Heavy Rain
12:35 PM 55.4 °F - 55.4 °F 100% 29.55 in 3.0 mi North 4.6 mph - N/A Rain Heavy Rain
12:55 PM 55.4 °F - 55.4 °F 100% 29.56 in 0.8 mi Calm Calm - N/A Rain , Thunderstorm Heavy Thunderstorms and Rain
1:15 PM 55.4 °F - 55.4 °F 100% 29.53 in 3.0 mi NNW 9.2 mph - N/A Rain , Thunderstorm Heavy Thunderstorms and Rain
1:35 PM 55.4 °F - 55.4 °F 100% 29.56 in 1.5 mi Calm Calm - N/A Rain , Thunderstorm Thunderstorms and Rain
1:55 PM 55.4 °F - 55.4 °F 100% 29.53 in 1.0 mi Calm Calm - N/A Rain , Thunderstorm Heavy Thunderstorms and Rain
2:15 PM 55.4 °F - 55.4 °F 100% 29.53 in 2.5 mi Calm Calm - N/A Rain , Thunderstorm Heavy Thunderstorms and Rain
2:35 PM 55.4 °F - 55.4 °F 100% 29.53 in 2.5 mi Calm Calm - N/A Rain Rain
2:55 PM 53.6 °F - 53.6 °F 100% 29.51 in 2.0 mi NNE 4.6 mph - N/A Rain , Thunderstorm Rain
3:15 PM 55.4 °F - 55.4 °F 100% 29.51 in 5.0 mi ENE 3.5 mph - N/A Rain , Thunderstorm Light Thunderstorms and Rain
3:35 PM 55.4 °F - 55.4 °F 100% 29.51 in 5.0 mi ENE 3.5 mph - N/A Rain Light Rain
3:55 PM 55.4 °F - 55.4 °F 100% 29.50 in 4.0 mi East 4.6 mph - N/A Rain Rain
4:15 PM 55.4 °F - 55.4 °F 100% 29.53 in 5.0 mi SE 3.5 mph - N/A Rain , Thunderstorm Rain
4:35 PM 55.4 °F - 55.4 °F 100% 29.50 in 7.0 mi Calm Calm - N/A Rain Light Rain
4:55 PM 55.4 °F - 55.4 °F 100% 29.51 in 10.0 mi East 3.5 mph - N/A   Drizzle
5:15 PM 55.4 °F - 55.4 °F 100% 29.50 in 7.0 mi East 4.6 mph - N/A Rain Light Rain
5:35 PM 55.4 °F - 55.4 °F 100% 29.51 in 7.0 mi ESE 6.9 mph - N/A   Drizzle
5:55 PM 55.4 °F - 55.4 °F 100% 29.51 in 7.0 mi ESE 8.1 mph - N/A Rain Rain
6:15 PM 55.4 °F - 55.4 °F 100% 29.52 in 7.0 mi SE 6.9 mph - N/A Rain Rain
6:35 PM 55.4 °F - 55.4 °F 100% 29.52 in 5.0 mi SE 8.1 mph - N/A Rain Rain
6:55 PM 53.6 °F - 53.6 °F 100% 29.50 in 7.0 mi ESE 5.8 mph - N/A Rain Light Rain
7:15 PM 53.6 °F - 53.6 °F 100% 29.50 in 7.0 mi ESE 6.9 mph - N/A Rain Light Rain
7:35 PM 53.6 °F - 53.6 °F 100% 29.48 in 7.0 mi East 3.5 mph - N/A Rain Light Rain
7:55 PM 53.6 °F - 53.6 °F 100% 29.51 in 4.0 mi WNW 8.1 mph - N/A Rain Rain
8:15 PM 46.4 °F 40.1 °F 46.4 °F 100% 29.52 in 5.0 mi NW 15.0 mph 19.6 mph N/A Rain Rain
8:35 PM 46.4 °F 40.7 °F 46.4 °F 100% 29.55 in 10.0 mi WNW 12.7 mph 17.3 mph N/A Rain Light Rain
8:55 PM 44.6 °F 38.8 °F 44.6 °F 100% 29.59 in 10.0 mi West 11.5 mph 16.1 mph N/A Rain Light Rain
9:15 PM 44.6 °F 38.8 °F 44.6 °F 100% 29.56 in 10.0 mi NW 11.5 mph 18.4 mph N/A   Drizzle
9:35 PM 44.6 °F 40.7 °F 44.6 °F 100% 29.58 in 10.0 mi WNW 6.9 mph - N/A Rain Light Rain
9:55 PM 44.6 °F 41.4 °F 44.6 °F 100% 29.52 in 10.0 mi East 5.8 mph 17.3 mph N/A   Overcast
10:15 PM 44.6 °F - 44.6 °F 100% 29.54 in 10.0 mi Calm Calm - N/A   Overcast
10:35 PM 44.6 °F - 44.6 °F 100% 29.57 in 10.0 mi Calm Calm - N/A   Overcast
10:55 PM 44.6 °F - 44.6 °F 100% 29.51 in 10.0 mi Calm Calm - N/A   Mostly Cloudy
11:15 PM 44.6 °F 43.1 °F 44.6 °F 100% 29.54 in 10.0 mi South 3.5 mph - N/A   Mostly Cloudy
11:35 PM 44.6 °F 39.7 °F 44.6 °F 100% 29.53 in 7.0 mi West 9.2 mph - N/A   Overcast
11:55 PM 44.6 °F 39.2 °F 44.6 °F 100% 29.58 in 7.0 mi West 10.4 mph - N/A   Overcast